{"data":{"norad_id":68727,"intl_designator":"2026-081AE","name":"STARLINK-37270","alt_names":[],"object_type":"PAYLOAD","status":"ACTIVE","operator":null,"country":"US","launch_date":"2026-04-14","launch_site_code":"AFETR","launch_vehicle":null,"mission":null,"orbit_class":"UNKNOWN","rcs_meters":null,"size_class":null,"mass_kg":null,"dimensions":null,"purposes":["comms"],"wikipedia_slug":null,"has_3d_model":false,"image_url":null,"decayed_at":null,"tle_current":{"epoch":"2026-05-25T02:50:09.957120Z","epoch_age_seconds":65653,"freshness":"FRESH","line1":"1 68727U 26081AE  26145.11817080  .00030858  00000+0  55987-3 0  9991","line2":"2 68727  53.1599  39.8655 0001153  83.1344 276.9796 15.49350391  6432","mean_motion":15.49350391,"eccentricity":0.0001153,"inclination_deg":53.1599,"raan_deg":39.8655,"arg_perigee_deg":83.1344,"mean_anomaly_deg":276.9796,"bstar":0.00055987,"rev_number":643,"period_min":92.94217811315,"perigee_km":417.84156226467,"apogee_km":419.40889563467,"semimajor_km":6796.7622289497,"source":"CELESTRAK","updated_at":"2026-05-25T13:38:22.004011Z"}}}